This is the latest recevied weather packets stored in our database for station/object KF0JJO. If no packets are shown the sender has not sent any weather packets the latest 10 day(s).
| Time | Temp. | Humidity | Pressure | Rain* | Wind** | Luminosity | Snow |
|---|---|---|---|---|---|---|---|
| 1777745823 | 17.78° C | 27% | 1047.3 hPa | 0 mm | - | 873 W/m² | - |
| 1777745522 | 17.78° C | 29% | 1047.1 hPa | 0 mm | - | 884 W/m² | - |
| 1777745218 | 17.22° C | 30% | 1047.2 hPa | 0 mm | - | 861 W/m² | - |
| 1777744916 | 17.22° C | 27% | 1047.3 hPa | 0 mm | - | 855 W/m² | - |
| 1777744615 | 16.67° C | 28% | 1047.4 hPa | 0 mm | - | 880 W/m² | - |
| 1777744311 | 17.22° C | 26% | 1047.3 hPa | 0 mm | - | 838 W/m² | - |
| 1777744008 | 17.22° C | 26% | 1047.6 hPa | 0 mm | - | 847 W/m² | - |
| 1777743704 | 16.67° C | 28% | 1047.7 hPa | 0 mm | - | 810 W/m² | - |
| 1777743402 | 16.67° C | 28% | 1047.8 hPa | 0 mm | - | 870 W/m² | - |
| 1777743100 | 16.67° C | 28% | 1047.9 hPa | 0 mm | - | 740 W/m² | - |
| 1777742797 | 16.11° C | 29% | 1047.9 hPa | 0 mm | - | 211 W/m² | - |
| 1777742493 | 15.56° C | 30% | 1048.2 hPa | 0 mm | - | 300 W/m² | - |
| 1777742188 | 15.56° C | 30% | 1048 hPa | 0 mm | - | 179 W/m² | - |
| 1777741886 | 15.56° C | 30% | 1048.2 hPa | 0 mm | - | 161 W/m² | - |
| 1777741583 | 15° C | 29% | 1048.2 hPa | 0 mm | - | 190 W/m² | - |
| 1777741280 | 15.56° C | 28% | 1048.5 hPa | 0 mm | - | 138 W/m² | - |
| 1777740976 | 15° C | 29% | 1048.3 hPa | 0 mm | - | 249 W/m² | - |
| 1777740674 | 15° C | 31% | 1048.4 hPa | 0 mm | - | 403 W/m² | - |
| 1777740369 | 15° C | 31% | 1048.6 hPa | 0 mm | - | 182 W/m² | - |
| 1777740066 | 14.44° C | 30% | 1048.6 hPa | 0 mm | - | 98 W/m² | - |
| 1777739763 | 14.44° C | 30% | 1048.8 hPa | 0 mm | - | 106 W/m² | - |
| 1777739459 | 14.44° C | 31% | 1048.8 hPa | 0 mm | - | 282 W/m² | - |
| 1777739156 | 14.44° C | 30% | 1048.7 hPa | 0 mm | - | 195 W/m² | - |
| 1777738854 | 14.44° C | 31% | 1049 hPa | 0 mm | - | 194 W/m² | - |
| 1777738550 | 13.89° C | 33% | 1048.8 hPa | 0 mm | - | 143 W/m² | - |
* Rain latest hour (hover to see other rain measurements)
** Current wind speed in m/s (hover to see current wind gust speed)